When you browse on this site, cookies collect data to enhance your experience and personalize the content and advertising you see.
Visit our Privacy Policy to learn more. By continuing to use the site, you agree to this use of cookies and data.
  • In Hungary
  • List of Countries
  • For 7 days
  • Water Temperature
  • Satellite Maps
  • Weather Map
  • News
  • Weather Widgets
  • user-avatar
    Login

    Hourly Weather Kaduna

    Today, 17 November, Saturday

    Time Temperature Precipitation Wind Pressure Humidity
    00:00 +24°C° 0 mm 2 mps 709 mmHg 22%
    01:00 +23°C° 0 mm 1 mps 709 mmHg 23%
    02:00 +23°C° 0 mm 1 mps 709 mmHg 24%
    03:00 +23°C° 0 mm 1 mps 709 mmHg 24%
    04:00 +22°C° 0 mm 1 mps 709 mmHg 25%
    05:00 +22°C° 0 mm 1 mps 709 mmHg 26%
    06:00 +23°C° 0 mm 1 mps 709 mmHg 26%
    07:00 +25°C° 0 mm 2 mps 710 mmHg 23%
    08:00 +28°C° 0 mm 2 mps 710 mmHg 21%
    09:00 +31°C° 0 mm 2 mps 711 mmHg 18%
    10:00 +34°C° 0 mm 2 mps 710 mmHg 17%
    11:00 +35°C° 0 mm 1 mps 710 mmHg 16%
    12:00 +36°C° 0 mm 1 mps 710 mmHg 14%
    13:00 +36°C° 0 mm 1 mps 709 mmHg 15%
    14:00 +36°C° 0 mm 1 mps 709 mmHg 15%
    15:00 +34°C° 0 mm 0 mps 709 mmHg 15%
    16:00 +34°C° 0 mm 1 mps 709 mmHg 18%
    17:00 +32°C° 0 mm 1 mps 708 mmHg 20%
    18:00 +29°C° 0 mm 1 mps 708 mmHg 22%
    19:00 +29°C° 0 mm 1 mps 709 mmHg 23%
    20:00 +28°C° 0 mm 1 mps 709 mmHg 24%
    21:00 +27°C° 0 mm 1 mps 709 mmHg 25%
    22:00 +26°C° 0 mm 1 mps 709 mmHg 26%
    23:00 +26°C° 0 mm 1 mps 709 mmHg 27%

    Tomorrow, 18 November, Sunday

    Time Temperature Precipitation Wind Pressure Humidity
    00:00 +25°C° 0 mm 1 mps 709 mmHg 28%
    01:00 +25°C° 0 mm 1 mps 708 mmHg 29%
    02:00 +24°C° 0 mm 1 mps 708 mmHg 29%
    03:00 +24°C° 0 mm 1 mps 708 mmHg 30%
    04:00 +23°C° 0 mm 1 mps 708 mmHg 31%
    05:00 +23°C° 0 mm 2 mps 708 mmHg 31%
    06:00 +23°C° 0 mm 2 mps 708 mmHg 32%
    07:00 +26°C° 0 mm 2 mps 709 mmHg 28%
    08:00 +29°C° 0 mm 2 mps 710 mmHg 24%
    09:00 +34°C° 0 mm 2 mps 711 mmHg 20%
    10:00 +35°C° 0 mm 2 mps 710 mmHg 18%
    11:00 +37°C° 0 mm 2 mps 710 mmHg 17%
    12:00 +39°C° 0 mm 1 mps 709 mmHg 15%
    13:00 +39°C° 0 mm 1 mps 709 mmHg 15%
    14:00 +37°C° 0 mm 1 mps 708 mmHg 15%
    15:00 +37°C° 0 mm 1 mps 707 mmHg 15%
    16:00 +35°C° 0 mm 1 mps 707 mmHg 17%
    17:00 +34°C° 0 mm 2 mps 707 mmHg 20%
    18:00 +31°C° 0 mm 2 mps 707 mmHg 22%
    19:00 +30°C° 0 mm 2 mps 708 mmHg 23%
    20:00 +29°C° 0 mm 2 mps 708 mmHg 24%
    21:00 +28°C° 0 mm 2 mps 709 mmHg 25%
    22:00 +28°C° 0 mm 2 mps 708 mmHg 26%
    23:00 +27°C° 0 mm 2 mps 708 mmHg 27%

    Day after tomorrow, 19 November, Monday

    Time Temperature Precipitation Wind Pressure Humidity
    00:00 +26°C° 0 mm 2 mps 708 mmHg 28%
    01:00 +26°C° 0 mm 2 mps 708 mmHg 28%
    02:00 +25°C° 0 mm 1 mps 707 mmHg 29%
    03:00 +25°C° 0 mm 1 mps 707 mmHg 30%
    04:00 +24°C° 0 mm 2 mps 707 mmHg 30%
    05:00 +24°C° 0 mm 2 mps 708 mmHg 31%
    06:00 +24°C° 0 mm 2 mps 708 mmHg 31%
    07:00 +27°C° 0 mm 2 mps 709 mmHg 26%
    08:00 +30°C° 0 mm 3 mps 709 mmHg 22%
    09:00 +34°C° 0 mm 3 mps 710 mmHg 17%
    10:00 +36°C° 0 mm 3 mps 709 mmHg 16%
    11:00 +37°C° 0 mm 3 mps 709 mmHg 15%
    12:00 +39°C° 0 mm 3 mps 708 mmHg 13%
    13:00 +39°C° 0 mm 2 mps 708 mmHg 13%
    14:00 +39°C° 0 mm 2 mps 707 mmHg 13%
    15:00 +39°C° 0 mm 2 mps 706 mmHg 13%
    16:00 +37°C° 0 mm 2 mps 706 mmHg 15%
    17:00 +34°C° 0 mm 1 mps 707 mmHg 18%
    18:00 +31°C° 0 mm 1 mps 707 mmHg 20%
    19:00 +30°C° 0 mm 1 mps 707 mmHg 21%
    20:00 +29°C° 0 mm 1 mps 708 mmHg 22%
    21:00 +29°C° 0 mm 1 mps 708 mmHg 23%
    22:00 +28°C° 0 mm 1 mps 708 mmHg 24%
    23:00 +27°C° 0 mm 1 mps 708 mmHg 25%

    20 November, Tuesday

    Time Temperature Precipitation Wind Pressure Humidity
    00:00 +26°C° 0 mm 1 mps 708 mmHg 26%
    01:00 +26°C° 0 mm 1 mps 707 mmHg 27%
    02:00 +26°C° 0 mm 1 mps 707 mmHg 27%
    03:00 +25°C° 0 mm 1 mps 707 mmHg 28%
    04:00 +25°C° 0 mm 1 mps 707 mmHg 29%
    05:00 +25°C° 0 mm 1 mps 708 mmHg 29%
    06:00 +24°C° 0 mm 1 mps 708 mmHg 29%
    07:00 +27°C° 0 mm 2 mps 709 mmHg 25%
    08:00 +30°C° 0 mm 2 mps 709 mmHg 20%
    09:00 +34°C° 0 mm 3 mps 710 mmHg 16%
    10:00 +36°C° 0 mm 3 mps 710 mmHg 15%
    11:00 +38°C° 0 mm 3 mps 709 mmHg 14%
    12:00 +39°C° 0 mm 3 mps 708 mmHg 12%
    13:00 +39°C° 0 mm 3 mps 708 mmHg 12%
    14:00 +39°C° 0 mm 3 mps 707 mmHg 12%
    15:00 +39°C° 0 mm 3 mps 707 mmHg 12%
    16:00 +37°C° 0 mm 2 mps 707 mmHg 14%
    17:00 +35°C° 0 mm 2 mps 707 mmHg 16%
    18:00 +32°C° 0 mm 2 mps 707 mmHg 18%
    19:00 +31°C° 0 mm 2 mps 708 mmHg 19%
    20:00 +30°C° 0 mm 2 mps 708 mmHg 19%
    21:00 +29°C° 0 mm 2 mps 709 mmHg 20%
    22:00 +28°C° 0 mm 2 mps 708 mmHg 20%
    23:00 +27°C° 0 mm 2 mps 708 mmHg 20%

    21 November, Wednesday

    Time Temperature Precipitation Wind Pressure Humidity
    00:00 +27°C° 0 mm 2 mps 708 mmHg 20%
    01:00 +26°C° 0 mm 2 mps 708 mmHg 21%
    02:00 +25°C° 0 mm 1 mps 707 mmHg 21%
    03:00 +25°C° 0 mm 1 mps 707 mmHg 22%
    04:00 +24°C° 0 mm 1 mps 708 mmHg 23%
    05:00 +24°C° 0 mm 1 mps 708 mmHg 24%
    06:00 +24°C° 0 mm 1 mps 708 mmHg 25%
    07:00 +27°C° 0 mm 1 mps 709 mmHg 22%
    08:00 +30°C° 0 mm 1 mps 709 mmHg 20%
    09:00 +33°C° 0 mm 1 mps 710 mmHg 18%
    10:00 +35°C° 0 mm 1 mps 710 mmHg 15%
    11:00 +37°C° 0 mm 1 mps 709 mmHg 13%
    12:00 +40°C° 0 mm 1 mps 708 mmHg 11%
    13:00 +40°C° 0 mm 1 mps 708 mmHg 10%
    14:00 +40°C° 0 mm 1 mps 707 mmHg 10%
    15:00 +39°C° 0 mm 2 mps 707 mmHg 9%
    16:00 +36°C° 0 mm 1 mps 707 mmHg 11%
    17:00 +34°C° 0 mm 1 mps 707 mmHg 12%
    18:00 +31°C° 0 mm 1 mps 707 mmHg 13%
    19:00 +30°C° 0 mm 2 mps 708 mmHg 13%
    20:00 +29°C° 0 mm 2 mps 708 mmHg 13%
    21:00 +28°C° 0 mm 2 mps 708 mmHg 13%
    22:00 +27°C° 0 mm 2 mps 708 mmHg 14%
    23:00 +27°C° 0 mm 2 mps 708 mmHg 15%

    22 November, Thursday

    Time Temperature Precipitation Wind Pressure Humidity
    00:00 +26°C° 0 mm 2 mps 708 mmHg 16%
    01:00 +25°C° 0 mm 1 mps 708 mmHg 18%
    02:00 +24°C° 0 mm 1 mps 707 mmHg 19%
    03:00 +24°C° 0 mm 1 mps 707 mmHg 21%
    04:00 +24°C° 0 mm 1 mps 708 mmHg 21%
    05:00 +23°C° 0 mm 1 mps 708 mmHg 22%
    06:00 +23°C° 0 mm 1 mps 708 mmHg 23%
    07:00 +26°C° 0 mm 1 mps 709 mmHg 20%
    08:00 +29°C° 0 mm 2 mps 710 mmHg 18%
    09:00 +32°C° 0 mm 2 mps 710 mmHg 15%
    10:00 +35°C° 0 mm 2 mps 710 mmHg 14%
    11:00 +36°C° 0 mm 2 mps 709 mmHg 12%
    12:00 +38°C° 0 mm 2 mps 708 mmHg 10%
    13:00 +38°C° 0 mm 2 mps 708 mmHg 10%
    14:00 +37°C° 0 mm 1 mps 707 mmHg 10%
    15:00 +37°C° 0 mm 1 mps 707 mmHg 9%
    16:00 +35°C° 0 mm 1 mps 707 mmHg 11%
    17:00 +33°C° 0 mm 1 mps 707 mmHg 12%
    18:00 +30°C° 0 mm 2 mps 707 mmHg 13%
    19:00 +29°C° 0 mm 2 mps 708 mmHg 13%
    20:00 +28°C° 0 mm 2 mps 708 mmHg 13%
    21:00 +27°C° 0 mm 2 mps 708 mmHg 13%
    22:00 +26°C° 0 mm 2 mps 708 mmHg 14%
    23:00 +26°C° 0 mm 2 mps 708 mmHg 15%
    Show more